When you browse on this site, cookies collect data to enhance your experience and personalize the content and advertising you see.
Visit our Privacy Policy to learn more. By continuing to use the site, you agree to this use of cookies and data.
  • Em Portugal
  • Lista de países
  • Para 7 dias
  • Temperatura da água
  • Mapas de satélite
  • Mapa do tempo
  • Widgets de tempo
  • user-avatar
    Iniciar Sessão

    Previsão horária em Sari

    Hoje, 22 Janeiro, Terça-feira

    Tempo Temperatura Precipitação Vento Pressão Humidade
    00:00 +8°C° 0 mm 1 m/s 761 mmHg 55%
    01:00 +8°C° 0 mm 1 m/s 761 mmHg 54%
    02:00 +8°C° 0 mm 1 m/s 761 mmHg 52%
    03:00 +8°C° 0 mm 1 m/s 760 mmHg 51%
    04:00 +8°C° 0 mm 1 m/s 760 mmHg 49%
    05:00 +8°C° 0 mm 1 m/s 760 mmHg 47%
    06:00 +7°C° 0 mm 1 m/s 760 mmHg 45%
    07:00 +7°C° 0 mm 1 m/s 760 mmHg 43%
    08:00 +9°C° 0 mm 1 m/s 760 mmHg 40%
    09:00 +10°C° 0 mm 1 m/s 760 mmHg 37%
    10:00 +11°C° 0 mm 0 m/s 760 mmHg 35%
    11:00 +13°C° 0 mm 1 m/s 759 mmHg 34%
    12:00 +14°C° 0 mm 1 m/s 759 mmHg 33%
    13:00 +16°C° 0 mm 1 m/s 759 mmHg 32%
    14:00 +15°C° 0 mm 2 m/s 759 mmHg 35%
    15:00 +15°C° 0 mm 2 m/s 759 mmHg 39%
    16:00 +15°C° 0 mm 2 m/s 758 mmHg 44%
    17:00 +13°C° 0 mm 1 m/s 759 mmHg 49%
    18:00 +12°C° 0 mm 1 m/s 759 mmHg 54%
    19:00 +11°C° 0 mm 1 m/s 759 mmHg 59%
    20:00 +10°C° 0 mm 1 m/s 759 mmHg 58%
    21:00 +10°C° 0 mm 1 m/s 759 mmHg 57%
    22:00 +10°C° 0 mm 1 m/s 759 mmHg 56%
    23:00 +10°C° 0 mm 1 m/s 760 mmHg 55%

    Amanhã, 23 Janeiro, Quarta-feira

    Tempo Temperatura Precipitação Vento Pressão Humidade
    00:00 +10°C° 0 mm 1 m/s 760 mmHg 53%
    01:00 +9°C° 0 mm 1 m/s 760 mmHg 52%
    02:00 +9°C° 0 mm 1 m/s 760 mmHg 50%
    03:00 +9°C° 0 mm 1 m/s 760 mmHg 49%
    04:00 +9°C° 0 mm 1 m/s 760 mmHg 47%
    05:00 +9°C° 0 mm 1 m/s 761 mmHg 46%
    06:00 +9°C° 0 mm 1 m/s 761 mmHg 45%
    07:00 +8°C° 0 mm 1 m/s 762 mmHg 44%
    08:00 +10°C° 0 mm 1 m/s 762 mmHg 42%
    09:00 +11°C° 0 mm 1 m/s 762 mmHg 39%
    10:00 +13°C° 0 mm 1 m/s 763 mmHg 37%
    11:00 +13°C° 0 mm 1 m/s 763 mmHg 36%
    12:00 +14°C° 0 mm 1 m/s 763 mmHg 36%
    13:00 +15°C° 0 mm 2 m/s 763 mmHg 35%
    14:00 +15°C° 0 mm 2 m/s 762 mmHg 38%
    15:00 +15°C° 0 mm 2 m/s 762 mmHg 41%
    16:00 +15°C° 0 mm 2 m/s 762 mmHg 45%
    17:00 +13°C° 0 mm 2 m/s 763 mmHg 51%
    18:00 +12°C° 0 mm 2 m/s 763 mmHg 57%
    19:00 +10°C° 0 mm 2 m/s 763 mmHg 63%
    20:00 +9°C° 0 mm 2 m/s 764 mmHg 62%
    21:00 +9°C° 0 mm 2 m/s 764 mmHg 61%
    22:00 +10°C° 0 mm 1 m/s 764 mmHg 60%
    23:00 +10°C° 0 mm 1 m/s 764 mmHg 59%

    Depois de amanhã, 24 Janeiro, Quinta-feira

    Tempo Temperatura Precipitação Vento Pressão Humidade
    00:00 +9°C° 0 mm 1 m/s 764 mmHg 59%
    01:00 +9°C° 0 mm 1 m/s 764 mmHg 58%
    02:00 +9°C° 0 mm 1 m/s 764 mmHg 56%
    03:00 +9°C° 0 mm 1 m/s 764 mmHg 54%
    04:00 +9°C° 0 mm 1 m/s 764 mmHg 52%
    05:00 +9°C° 0 mm 1 m/s 764 mmHg 50%
    06:00 +9°C° 0 mm 1 m/s 764 mmHg 48%
    07:00 +7°C° 0 mm 2 m/s 764 mmHg 46%
    08:00 +10°C° 0 mm 1 m/s 764 mmHg 43%
    09:00 +12°C° 0 mm 1 m/s 764 mmHg 40%
    10:00 +13°C° 0 mm 1 m/s 764 mmHg 38%
    11:00 +15°C° 0 mm 2 m/s 763 mmHg 36%
    12:00 +16°C° 0 mm 2 m/s 763 mmHg 35%
    13:00 +17°C° 0 mm 3 m/s 762 mmHg 34%
    14:00 +17°C° 0 mm 3 m/s 762 mmHg 36%
    15:00 +17°C° 0 mm 3 m/s 762 mmHg 39%
    16:00 +17°C° 0 mm 3 m/s 761 mmHg 41%
    17:00 +15°C° 0 mm 2 m/s 762 mmHg 44%
    18:00 +14°C° 0 mm 2 m/s 762 mmHg 48%
    19:00 +13°C° 0 mm 1 m/s 762 mmHg 51%
    20:00 +12°C° 0 mm 1 m/s 762 mmHg 50%
    21:00 +12°C° 0 mm 1 m/s 762 mmHg 48%
    22:00 +12°C° 0 mm 2 m/s 762 mmHg 47%
    23:00 +12°C° 0 mm 2 m/s 762 mmHg 45%

    25 Janeiro, Sexta-feira

    Tempo Temperatura Precipitação Vento Pressão Humidade
    00:00 +10°C° 0 mm 2 m/s 761 mmHg 44%
    01:00 +10°C° 0 mm 2 m/s 761 mmHg 43%
    02:00 +10°C° 0 mm 2 m/s 761 mmHg 42%
    03:00 +10°C° 0 mm 2 m/s 760 mmHg 42%
    04:00 +10°C° 0 mm 2 m/s 760 mmHg 41%
    05:00 +10°C° 0 mm 2 m/s 760 mmHg 41%
    06:00 +10°C° 0 mm 2 m/s 760 mmHg 40%
    07:00 +9°C° 0 mm 2 m/s 760 mmHg 40%
    08:00 +12°C° 0 mm 2 m/s 760 mmHg 39%
    09:00 +14°C° 0 mm 2 m/s 760 mmHg 38%
    10:00 +15°C° 0 mm 1 m/s 759 mmHg 37%
    11:00 +18°C° 0 mm 1 m/s 759 mmHg 35%
    12:00 +19°C° 0 mm 1 m/s 759 mmHg 33%
    13:00 +20°C° 0 mm 1 m/s 759 mmHg 31%
    14:00 +20°C° 0 mm 1 m/s 758 mmHg 34%
    15:00 +20°C° 0 mm 1 m/s 758 mmHg 37%
    16:00 +19°C° 0 mm 1 m/s 758 mmHg 40%
    17:00 +18°C° 0 mm 1 m/s 758 mmHg 40%
    18:00 +16°C° 0 mm 1 m/s 758 mmHg 39%
    19:00 +15°C° 0 mm 2 m/s 758 mmHg 39%
    20:00 +15°C° 0 mm 2 m/s 758 mmHg 38%
    21:00 +15°C° 0 mm 2 m/s 758 mmHg 37%
    22:00 +15°C° 0 mm 2 m/s 758 mmHg 36%
    23:00 +15°C° 0 mm 2 m/s 758 mmHg 35%

    26 Janeiro, Sábado

    Tempo Temperatura Precipitação Vento Pressão Humidade
    00:00 +14°C° 0 mm 2 m/s 758 mmHg 34%
    01:00 +14°C° 0 mm 2 m/s 758 mmHg 33%
    02:00 +14°C° 0 mm 2 m/s 758 mmHg 35%
    03:00 +14°C° 0 mm 2 m/s 758 mmHg 36%
    04:00 +14°C° 0 mm 2 m/s 758 mmHg 37%
    05:00 +14°C° 0 mm 2 m/s 758 mmHg 37%
    06:00 +13°C° 0 mm 2 m/s 758 mmHg 38%
    07:00 +13°C° 0 mm 2 m/s 758 mmHg 39%
    08:00 +15°C° 0 mm 1 m/s 758 mmHg 38%
    09:00 +16°C° 0 mm 1 m/s 758 mmHg 37%
    10:00 +19°C° 0 mm 1 m/s 759 mmHg 36%
    11:00 +20°C° 0 mm 1 m/s 758 mmHg 34%
    12:00 +21°C° 0 mm 1 m/s 758 mmHg 32%
    13:00 +21°C° 0 mm 2 m/s 758 mmHg 30%
    14:00 +21°C° 0 mm 2 m/s 757 mmHg 32%
    15:00 +21°C° 0 mm 2 m/s 757 mmHg 34%
    16:00 +21°C° 0 mm 2 m/s 757 mmHg 35%
    17:00 +19°C° 0 mm 2 m/s 757 mmHg 37%
    18:00 +18°C° 0 mm 2 m/s 757 mmHg 39%
    19:00 +16°C° 0 mm 2 m/s 757 mmHg 41%
    20:00 +16°C° 0 mm 2 m/s 757 mmHg 40%
    21:00 +16°C° 0 mm 2 m/s 757 mmHg 38%
    22:00 +16°C° 0 mm 3 m/s 757 mmHg 37%
    23:00 +16°C° 0 mm 3 m/s 757 mmHg 35%

    27 Janeiro, Domingo

    Tempo Temperatura Precipitação Vento Pressão Humidade
    00:00 +16°C° 0 mm 3 m/s 757 mmHg 33%
    01:00 +16°C° 0 mm 3 m/s 756 mmHg 31%
    02:00 +16°C° 0 mm 3 m/s 756 mmHg 30%
    03:00 +16°C° 0 mm 3 m/s 756 mmHg 29%
    04:00 +16°C° 0 mm 3 m/s 755 mmHg 28%
    05:00 +16°C° 0 mm 3 m/s 755 mmHg 28%
    06:00 +16°C° 0 mm 3 m/s 755 mmHg 28%
    07:00 +16°C° 0 mm 3 m/s 755 mmHg 28%
    08:00 +18°C° 0 mm 3 m/s 755 mmHg 30%
    09:00 +19°C° 0 mm 2 m/s 756 mmHg 31%
    10:00 +21°C° 0 mm 2 m/s 756 mmHg 33%
    11:00 +23°C° 0 mm 2 m/s 756 mmHg 31%
    12:00 +25°C° 0 mm 2 m/s 756 mmHg 29%
    13:00 +27°C° 0 mm 1 m/s 755 mmHg 27%
    14:00 +26°C° 0 mm 2 m/s 755 mmHg 28%
    15:00 +25°C° 0 mm 2 m/s 755 mmHg 29%
    16:00 +25°C° 0 mm 2 m/s 755 mmHg 31%
    17:00 +23°C° 0 mm 2 m/s 755 mmHg 34%
    18:00 +21°C° 0 mm 1 m/s 755 mmHg 36%
    19:00 +19°C° 0 mm 1 m/s 755 mmHg 39%
    20:00 +19°C° 0 mm 1 m/s 756 mmHg 39%
    21:00 +19°C° 0 mm 1 m/s 756 mmHg 40%
    22:00 +18°C° 0 mm 1 m/s 756 mmHg 40%
    23:00 +17°C° 0 mm 2 m/s 755 mmHg 40%
    Mostrar mais